Worland, WY

2:23 PM MDT on April 26, 2018 (GMT -0600)
Worland Municipal

Weather History for KWRL - March, 2013

Change the Weather History Date:

Friday, March 15, 2013

  Actual Average Record
Temperature  
Mean Temperature 51 °F 36 °F  
Max Temperature 69 °F 51 °F 73 °F (1999)
Min Temperature 33 °F 22 °F 9 °F (2002)
Degree Days  
Heating Degree Days 14 29  
Month to date heating degree days 424 473  
Since 1 July heating degree days 6006 6474  
Cooling Degree Days 0 0  
Month to date cooling degree days 0 0  
Year to date cooling degree days 0 0  
Growing Degree Days 1 (Base 50)    
Moisture  
Dew Point 26 °F    
Average Humidity 52    
Maximum Humidity 89    
Minimum Humidity 15    
Precipitation  
Precipitation 0.00 in 0.02 in 0.04 in (1980)
Month to date precipitation 0.01 0.20  
Year to date precipitation 0.40 0.62  
Sea Level Pressure  
Sea Level Pressure 29.90 in    
Wind  
Wind Speed 6 mph (West)    
Max Wind Speed 15 mph    
Max Gust Speed 20 mph    
Visibility 10 miles    
Events      
T = Trace of Precipitation, MM = Missing Value Source: NWS Daily Summary

Daily Weather History Graph

Daily Weather History Graph

Search for Another Location

Airport or City:

Astronomy

Mar. 15, 2013 Rise Set
Actual Time 7:23 AM MDT 7:18 PM MDT
Civil Twilight 6:54 AM MDT 7:47 PM MDT
Nautical Twilight 6:21 AM MDT 8:20 PM MDT
Astronomical Twilight 5:47 AM MDT 8:54 PM MDT
Moon 9:06 AM MDT (3/15) 11:45 PM MDT (3/15)
Length of Visible Light 12h 52m
Length of Day
11h 54m
Waxing Crescent, 16% of the Moon is Illuminated
Mar 15
Waxing Crescent
Mar 19
First Quarter
Mar 27
Full
Apr 2
Last Quarter
Apr 10
New

Hourly Weather History & Observations

Time (MDT) Temp. Windchill Dew Point Humidity Pressure Visibility Wind Dir Wind Speed Gust Speed Precip Events Conditions
12:53 AM 42.1 °F 38.4 °F 33.1 °F 70% 29.92 in 10.0 mi South 5.8 mph - N/A   Clear
1:53 AM 41.0 °F - 33.1 °F 73% 29.91 in 10.0 mi Calm Calm - N/A   Clear
2:53 AM 41.0 °F 34.7 °F 32.0 °F 70% 29.91 in 10.0 mi SSW 10.4 mph - N/A   Clear
3:53 AM 37.9 °F - 32.0 °F 79% 29.89 in 10.0 mi Calm Calm - N/A   Clear
4:53 AM 35.1 °F 32.2 °F 30.9 °F 85% 29.89 in 10.0 mi West 3.5 mph - N/A   Clear
5:53 AM 34.0 °F 27.2 °F 30.0 °F 85% 29.90 in 10.0 mi ENE 8.1 mph - N/A   Clear
6:53 AM 34.0 °F 28.8 °F 30.0 °F 85% 29.93 in 10.0 mi South 5.8 mph - N/A   Clear
7:53 AM 36.0 °F 29.6 °F 28.9 °F 76% 29.93 in 10.0 mi South 8.1 mph - N/A   Clear
8:53 AM 39.0 °F 35.7 °F 32.0 °F 76% 29.94 in 10.0 mi South 4.6 mph - N/A   Clear
9:53 AM 46.0 °F 43.1 °F 27.0 °F 47% 29.93 in 10.0 mi SSW 5.8 mph - N/A   Clear
10:53 AM 50.0 °F - 27.0 °F 41% 29.91 in 10.0 mi SW 4.6 mph - N/A   Clear
11:53 AM 59.0 °F - 26.1 °F 28% 29.88 in 10.0 mi SE 5.8 mph - N/A   Clear
12:53 PM 64.0 °F - 21.9 °F 20% 29.86 in 10.0 mi SSW 5.8 mph - N/A   Clear
1:53 PM 66.9 °F - 17.1 °F 15% 29.83 in 10.0 mi Calm Calm - N/A   Clear
2:53 PM 68.0 °F - 19.9 °F 16% 29.80 in 10.0 mi NE 8.1 mph - N/A   Partly Cloudy
4:53 PM 63.0 °F - 25.0 °F 24% 29.84 in 10.0 mi NE 6.9 mph - N/A   Clear
5:53 PM 61.0 °F - 26.1 °F 26% 29.84 in 10.0 mi NE 4.6 mph - N/A   Clear
6:53 PM 59.0 °F - 17.1 °F 20% 29.87 in 10.0 mi North 10.4 mph - N/A   Clear
7:53 PM 55.0 °F - 21.0 °F 27% 29.90 in 10.0 mi NNW 5.8 mph - N/A   Partly Cloudy
8:53 PM 51.1 °F - 21.9 °F 32% 29.92 in 10.0 mi NNW 9.2 mph - N/A   Clear
9:53 PM 48.0 °F - 23.0 °F 37% 29.94 in 10.0 mi North 6.9 mph - N/A   Clear
10:53 PM 46.0 °F 41.0 °F 21.9 °F 39% 29.94 in 10.0 mi NNW 10.4 mph - N/A   Clear
11:53 PM 43.0 °F 38.8 °F 25.0 °F 49% 29.94 in 10.0 mi NNW 6.9 mph - N/A   Clear